Theta_e
309 308 307 305 305 306 307 307 308 309 311 312 313 316 314 313 311 310 311 313 315 317 319 316 315 321 322 322 323 323 324 325 326 327 327 328 328 323 319 316 317 319 319 319 318 320 321 322 322 325 329 329 328 328 328 326 325 325 327 329 330 328 324 321 322 325 328 329 327 324 323 323 323 322
309 307 306 305 304 305 305 305 307 309 310 311 312 312 312 313 310 310 308 310 316 316 314 314 317 321 320 319 320 323 324 322 324 326 327 327 328 320 318 316 316 316 315 315 313 315 318 321 323 326 331 330 327 327 327 326 325 328 330 330 329 327 323 322 324 327 328 327 324 322 323 323 322 322
307 306 305 304 304 305 305 306 308 308 309 308 309 309 310 311 310 309 309 307 315 316 314 318 322 318 316 316 318 320 320 321 321 325 326 326 322 320 321 317 315 314 314 313 315 319 319 317 319 322 327 329 328 327 327 329 328 329 330 326 324 324 323 322 324 327 327 327 325 324 324 323 321 322
307 305 304 303 304 305 306 307 307 307 308 308 308 308 308 309 310 310 308 307 308 314 315 318 316 315 313 313 315 315 316 317 317 319 323 325 322 324 325 319 316 314 313 313 316 320 322 320 320 321 324 328 328 327 328 328 328 327 324 321 320 321 319 320 322 327 327 326 325 325 324 323 322 322
308 306 304 303 304 304 304 305 307 307 307 307 308 308 308 308 309 309 308 307 307 312 316 315 312 311 311 310 313 312 312 313 314 316 319 323 324 325 326 326 318 314 312 311 310 311 313 317 321 321 323 328 329 324 322 324 320 322 323 319 317 316 317 318 318 321 325 326 325 323 323 321 320 320
308 306 303 303 303 304 302 303 305 306 306 307 306 306 307 307 308 310 307 306 306 305 309 309 309 308 310 308 312 311 310 311 312 313 316 320 323 323 324 325 326 317 314 311 310 310 310 311 314 316 315 316 318 317 315 317 316 319 320 314 313 317 319 319 317 317 323 324 323 322 321 319 319 319
307 304 304 303 303 304 302 303 303 305 305 306 305 305 306 306 307 307 308 306 304 304 304 307 306 307 308 308 309 311 311 312 312 312 315 318 314 313 313 315 321 317 314 311 310 309 309 310 310 311 312 312 313 314 313 314 313 313 314 311 311 314 316 316 315 316 323 325 323 321 320 318 318 320
306 305 303 302 302 302 301 302 302 303 304 304 303 303 304 305 305 306 306 306 305 304 303 305 305 306 307 308 310 311 311 311 311 312 315 315 309 309 310 311 312 310 310 311 310 310 309 309 309 310 310 312 312 312 313 313 313 311 312 311 311 311 311 312 310 311 318 323 323 322 319 318 319 321
307 306 303 302 302 301 301 301 301 302 301 303 303 302 303 304 305 306 306 305 305 304 302 303 305 306 306 307 308 309 308 309 311 312 314 310 308 306 307 309 309 308 307 306 306 307 308 308 309 309 309 310 311 311 312 312 312 311 311 310 310 310 310 310 310 310 313 314 315 321 321 316 320 323
307 305 304 302 302 301 300 300 301 301 301 302 301 301 302 302 303 303 304 305 304 303 303 302 302 304 304 304 306 307 308 307 307 308 312 309 307 305 303 305 307 307 306 305 305 305 307 308 307 308 309 310 310 310 310 311 312 311 311 310 309 310 309 309 308 309 310 311 311 314 315 314 318 322
305 303 303 302 301 301 300 300 300 300 300 301 300 301 301 301 301 303 303 303 303 302 302 302 302 302 304 304 303 306 307 306 306 304 306 306 306 304 302 301 303 305 304 304 303 303 304 308 311 308 308 309 310 311 310 310 311 310 310 309 308 309 309 309 308 309 309 309 309 309 309 312 318 322
304 303 302 302 302 301 300 300 300 299 300 300 299 299 300 300 300 301 303 302 302 302 301 300 300 301 301 302 304 306 305 302 302 303 304 303 303 304 303 301 300 302 302 301 301 302 303 305 308 309 308 308 308 309 309 311 312 311 310 309 308 308 308 308 308 308 309 308 308 307 306 307 310 318
303 302 301 302 303 305 308 306 303 302 302 300 298 299 298 300 299 300 302 301 301 301 300 299 300 299 300 301 301 302 301 299 299 301 302 301 302 304 302 301 301 301 300 300 299 299 301 302 301 303 304 305 308 310 309 310 310 310 308 308 308 307 307 307 307 307 308 308 308 307 306 306 308 310
300 300 300 303 307 306 306 305 300 298 298 301 300 299 298 297 297 298 300 300 300 300 299 298 298 297 297 299 300 301 302 302 301 299 299 298 299 299 300 300 300 301 300 298 297 298 300 300 299 300 300 301 304 309 312 312 311 309 306 306 306 307 307 306 306 306 307 308 308 307 306 306 307 307
298 297 298 298 302 304 306 301 300 297 297 297 297 298 299 300 297 297 298 299 299 299 298 298 297 297 297 298 300 301 302 301 300 298 298 297 297 296 294 293 297 301 301 298 296 296 299 299 297 298 299 300 302 302 310 307 308 307 305 304 304 305 305 306 306 305 306 307 307 306 305 305 306 306
294 295 296 297 298 299 303 301 297 299 300 298 297 297 297 297 295 295 297 298 298 298 297 297 296 296 296 297 299 300 301 300 300 299 298 297 296 295 294 294 293 298 301 297 295 294 298 299 297 296 297 299 300 300 300 301 302 304 304 303 303 302 303 303 303 304 305 305 305 304 304 305 305 303
292 293 296 297 297 298 304 302 297 297 298 301 299 299 298 299 298 294 294 295 298 299 297 296 296 295 296 297 298 300 300 302 299 299 298 297 297 296 295 295 295 297 300 297 294 293 295 297 296 295 297 298 299 299 300 300 300 301 302 302 301 301 301 301 302 300 302 303 302 301 300 299 299 299
292 292 294 294 296 296 297 297 297 299 296 295 296 297 296 296 298 297 296 295 295 297 298 297 295 296 297 296 296 298 299 301 300 299 298 298 297 296 296 297 297 298 300 297 294 292 294 296 295 294 296 298 298 298 299 299 298 299 299 300 300 300 299 299 299 299 299 299 299 298 298 297 296 296
292 292 293 293 294 295 295 297 296 298 296 295 296 296 296 296 296 295 296 296 296 296 297 297 297 297 297 296 295 296 298 299 301 302 301 300 300 299 299 298 298 298 300 298 295 290 293 296 294 294 295 297 297 298 298 298 298 298 298 298 298 298 298 298 298 298 298 298 298 298 297 296 296 295
293 293 292 292 294 293 294 295 294 298 298 297 296 296 295 295 296 296 298 295 295 297 296 296 296 296 296 295 295 295 296 298 300 302 301 300 299 298 296 294 296 296 298 299 296 293 293 295 293 293 295 296 295 296 297 297 298 298 297 297 297 297 297 298 298 298 298 297 297 297 297 296 296 296
294 295 294 291 291 292 292 294 292 294 297 295 295 295 294 295 295 295 297 297 295 294 294 293 293 293 294 294 294 294 294 296 299 299 298 296 296 295 294 294 295 295 296 297 297 294 292 294 294 293 294 294 294 295 296 297 297 297 297 297 297 297 297 297 297 297 297 296 296 296 295 295 295 296
292 296 300 298 291 291 291 292 292 294 297 294 294 294 294 293 293 294 295 296 296 295 295 294 294 294 294 294 295 295 295 295 297 298 295 297 296 295 295 294 295 295 296 296 298 294 292 294 294 293 294 294 294 294 295 296 296 297 296 296 296 296 296 296 296 296 296 296 296 296 296 296 296 297
291 291 295 297 294 293 292 291 291 292 295 293 292 292 293 292 292 292 293 294 293 294 294 294 295 294 296 297 296 297 295 296 297 296 296 297 296 294 294 294 294 293 294 296 298 293 292 293 293 293 293 291 293 294 294 295 295 295 296 296 296 296 296 296 296 296 296 296 296 296 295 295 296 296
290 290 291 294 291 290 291 291 291 291 292 293 291 292 293 291 291 292 294 296 294 292 293 292 293 293 294 295 296 296 296 297 297 295 295 296 297 296 294 293 292 290 291 295 297 294 294 294 292 294 292 290 287 291 293 293 294 294 295 295 294 295 295 295 295 295 295 296 296 295 295 295 295 295
290 290 290 290 292 290 291 291 291 291 292 293 293 290 291 292 293 293 293 295 296 292 293 293 293 293 293 293 294 295 296 296 296 296 295 295 295 295 294 293 292 291 293 295 296 296 292 293 292 293 292 291 290 290 291 292 292 293 294 293 293 294 294 294 294 294 294 294 294 295 295 295 295 295
289 287 288 289 291 290 290 290 291 291 291 292 295 290 292 292 292 295 293 292 292 292 292 291 292 292 292 292 292 294 294 295 296 295 295 295 294 294 294 293 291 290 291 296 295 296 293 292 292 291 291 290 289 290 289 289 291 292 293 293 292 292 293 293 293 292 293 293 293 293 294 294 294 294
286 288 287 290 293 290 290 290 290 291 291 292 290 290 290 291 291 293 292 291 292 291 291 291 290 290 290 290 290 291 292 293 294 294 294 294 294 295 295 295 294 293 294 295 298 297 295 293 294 292 290 291 289 289 289 288 288 291 291 291 292 292 292 292 291 291 292 292 293 293 292 292 292 293
287 287 287 289 290 290 290 290 290 290 290 290 290 290 291 291 292 293 291 290 291 290 290 290 289 289 289 290 290 290 291 292 292 293 293 293 294 294 294 295 295 295 295 295 296 296 295 293 293 293 292 291 289 287 286 289 290 290 289 290 291 291 291 291 291 291 291 292 291 292 291 291 292 292
288 289 290 290 290 290 290 290 290 290 290 290 290 290 291 295 290 291 289 289 290 289 288 288 289 289 290 289 289 290 291 292 294 293 293 293 293 293 293 294 294 294 295 295 295 295 295 294 292 293 293 292 290 290 289 288 289 289 289 288 287 289 290 290 290 289 289 289 289 289 289 290 290 291
290 290 290 290 290 290 290 290 289 288 289 290 290 290 292 289 288 288 289 288 289 287 287 287 287 287 287 288 290 289 289 291 291 291 291 292 292 292 292 292 292 293 293 294 294 294 293 292 292 292 292 292 292 290 290 288 287 288 289 288 288 289 288 287 287 288 288 288 288 288 288 289 289 289
289 290 291 289 289 289 289 289 289 289 289 289 288 287 287 288 287 287 287 287 289 288 287 287 287 287 290 290 290 290 290 290 290 290 289 290 290 291 290 290 289 290 291 292 293 293 292 291 292 292 291 291 291 290 290 290 288 287 286 286 286 285 285 286 287 286 286 287 287 287 287 288 288 289
289 287 290 289 288 287 288 287 287 286 287 286 286 286 285 286 287 291 293 291 287 285 286 286 286 287 288 288 288 288 289 288 289 289 289 289 289 288 288 289 287 288 289 290 291 292 292 291 291 291 291 291 289 288 288 287 285 285 285 286 286 285 286 285 285 285 286 286 286 285 285 285 285 286
288 286 287 285 285 284 284 283 285 285 285 284 286 286 285 286 286 286 285 287 284 285 286 286 285 285 286 287 287 287 288 288 288 288 289 288 288 288 289 287 286 287 287 287 288 289 290 290 291 290 289 288 288 287 285 284 284 284 284 284 284 284 283 284 285 285 286 286 284 285 285 285 285 285
284 283 282 281 281 283 283 282 281 282 283 284 284 284 285 284 285 285 284 283 282 283 284 284 285 285 285 286 286 287 287 288 288 288 288 287 288 287 287 286 285 285 285 286 286 286 287 288 289 290 290 289 290 288 286 285 284 283 284 283 284 283 283 284 284 284 285 284 284 284 284 285 284 283
282 281 282 281 280 280 281 280 280 280 281 279 282 283 282 282 283 282 283 283 281 282 282 283 281 281 284 283 284 286 285 286 287 287 286 287 287 287 286 286 285 285 286 285 286 286 285 285 287 287 287 286 287 288 291 287 284 285 284 284 282 284 283 284 284 284 283 282 282 281 283 283 284 283
279 280 281 280 282 282 282 282 282 281 281 280 280 280 283 282 281 281 281 281 281 282 283 282 281 281 282 281 281 282 282 283 284 284 284 284 285 285 285 286 284 284 284 284 284 285 283 284 284 284 284 281 281 280 282 289 288 283 286 282 283 282 283 283 283 282 283 283 282 281 279 282 283 283
280 281 282 282 281 281 281 282 282 282 282 281 282 280 281 281 281 281 280 280 281 281 281 281 279 279 280 280 281 280 280 282 282 282 282 283 283 283 284 283 283 283 284 284 282 284 283 284 284 284 283 281 279 279 281 281 286 288 285 284 281 284 284 283 284 283 283 282 282 281 279 278 282 281
282 282 282 282 282 282 281 281 281 282 283 282 281 281 281 281 281 280 280 281 281 280 280 281 279 279 280 280 282 280 279 280 280 281 282 282 282 283 283 283 283 283 284 284 284 282 282 283 283 282 283 282 280 277 278 280 281 286 289 286 284 283 282 284 281 280 283 282 282 281 280 280 282 281
284 283 284 283 282 281 282 281 280 282 283 282 281 281 282 281 281 280 280 280 280 279 280 280 279 279 280 280 280 280 281 281 281 280 281 283 282 283 282 283 284 283 284 285 286 283 282 282 282 281 283 282 282 281 281 282 281 279 282 291 286 282 280 283 281 280 281 282 284 282 283 282 284 287
283 283 284 283 283 282 282 281 281 280 281 281 282 281 281 279 280 279 280 279 278 277 277 277 278 279 277 277 278 279 279 280 280 279 280 280 280 280 282 279 282 281 284 283 283 283 283 283 284 284 284 283 281 281 282 279 276 277 278 285 291 289 285 283 283 282 280 281 281 282 280 278 282 279
282 283 283 283 283 282 282 282 281 281 281 280 280 283 280 280 280 279 279 278 277 277 278 276 276 276 277 276 277 278 279 277 277 279 279 279 280 280 281 282 281 281 282 280 281 283 286 286 284 283 283 279 281 283 284 284 285 281 281 283 288 291 290 289 286 284 282 280 283 280 281 283 280 275
284 284 283 284 284 283 282 283 282 281 282 280 279 280 281 280 280 284 278 280 278 276 275 276 276 277 276 275 275 277 278 277 277 278 278 277 278 279 281 281 281 277 280 282 282 285 286 280 282 284 283 283 284 285 281 280 279 278 277 277 278 284 290 290 290 289 285 283 281 278 278 281 279 278
283 285 284 283 283 283 282 282 282 282 282 280 278 279 278 279 279 278 277 278 276 276 276 278 277 276 277 276 275 274 275 277 275 276 276 276 277 278 278 279 281 282 282 284 281 279 278 280 284 283 282 282 282 282 283 283 281 277 277 280 282 279 279 287 290 290 290 290 289 288 286 283 280 279
282 283 283 283 283 283 282 282 282 281 282 282 279 278 276 278 278 276 274 276 276 279 275 276 278 278 279 278 274 274 274 275 273 276 278 278 275 275 276 277 277 276 276 275 276 277 274 276 278 282 283 283 280 281 284 279 279 280 281 278 277 277 283 280 279 284 285 287 289 290 291 290 290 291
282 283 282 281 282 283 282 281 281 280 280 279 278 278 277 276 277 275 274 273 273 274 275 274 275 275 275 276 277 282 278 280 277 275 276 276 276 276 276 275 276 275 275 274 276 279 275 275 275 277 279 278 278 283 283 282 282 280 278 276 282 283 280 279 281 282 281 282 286 287 288 290 290 291
Wind_Speed
5 6 6 5 5 5 4 4 4 4 4 4 5 5 6 6 7 5 6 5 5 3 3 4 3 7 9 9 8 8 7 9 10 7 6 6 6 8 10 12 13 14 14 13 18 20 20 18 17 17 19 20 20 21 21 19 20 19 21 23 21 20 15 16 19 19 21 24 22 20 21 21 20 19
5 5 6 5 6 5 5 5 5 4 5 5 6 6 6 6 5 4 6 7 4 4 4 3 5 7 10 9 9 7 8 11 12 7 7 6 6 9 11 12 12 13 14 14 15 19 21 21 20 22 21 21 21 23 22 20 20 22 23 21 22 19 15 16 19 20 22 22 21 21 22 21 20 21
6 7 7 6 6 6 6 5 5 5 5 5 5 5 5 5 5 6 5 5 1 6 7 5 6 9 10 10 9 8 8 10 12 9 7 7 9 11 9 12 12 13 15 15 15 18 21 22 22 21 20 21 21 23 22 19 22 23 21 21 21 19 17 17 18 21 21 22 23 23 21 21 21 21
6 6 6 6 5 6 5 5 6 5 5 4 4 4 4 5 5 5 5 6 8 6 6 7 8 10 11 10 8 10 9 10 12 9 9 9 11 8 6 10 13 14 14 15 16 19 20 23 22 22 21 19 21 21 20 21 21 22 21 20 20 18 18 18 17 20 21 20 21 23 22 22 21 20
6 6 5 6 5 5 5 5 5 5 5 4 4 4 3 3 5 6 6 7 8 6 5 6 7 9 9 9 8 10 10 11 11 11 8 8 7 8 7 8 10 14 15 16 16 18 20 18 21 20 19 23 21 20 21 22 21 20 20 20 18 17 19 19 20 20 21 20 22 22 21 21 20 20
5 5 5 6 6 5 4 5 6 6 5 5 5 6 5 5 5 6 5 5 6 9 7 8 8 9 8 8 8 9 11 11 10 11 10 8 8 8 9 9 8 12 15 16 16 17 18 18 18 20 19 19 19 20 20 21 21 20 20 19 18 19 19 19 19 21 20 22 23 22 20 20 20 21
4 5 5 6 5 5 5 5 5 5 6 6 6 6 5 6 6 6 5 6 6 8 7 6 8 9 9 7 9 10 9 9 8 8 9 8 9 9 10 10 10 13 15 16 17 17 17 17 18 20 19 20 20 20 20 21 21 21 20 19 18 19 20 20 21 21 22 24 23 22 20 20 21 21
4 4 4 5 6 6 6 6 6 6 5 6 5 5 5 5 6 5 5 5 5 4 6 7 8 9 9 8 9 8 9 8 8 7 7 7 9 9 9 10 9 17 23 12 17 17 17 18 18 19 19 21 22 20 20 22 21 21 20 20 20 20 21 21 19 20 22 24 24 23 21 22 22 23
4 4 4 5 5 6 6 7 7 7 7 6 6 6 6 6 6 5 5 5 5 5 6 8 7 8 7 7 7 9 10 10 8 8 6 8 8 9 9 9 10 15 18 21 18 13 12 14 17 18 19 21 22 21 23 23 22 22 22 21 21 21 22 22 21 19 22 22 23 24 24 22 23 24
3 3 4 4 5 6 7 7 7 7 8 6 7 7 7 7 6 6 6 7 7 7 6 6 7 8 10 10 8 10 10 10 9 8 5 5 8 9 11 11 10 9 10 10 11 12 9 9 12 15 18 20 21 19 21 23 24 23 22 22 22 22 22 21 20 20 21 23 23 23 23 22 23 24
3 2 2 3 4 5 6 7 7 7 8 7 8 8 7 6 6 6 7 7 6 5 6 5 6 6 7 7 10 10 10 8 8 10 9 6 6 7 10 11 9 9 11 13 16 17 16 12 7 9 14 18 22 23 23 22 23 22 22 21 21 22 23 22 21 22 21 22 23 23 22 22 23 23
2 2 2 2 2 2 3 4 5 6 6 6 8 8 7 7 7 7 6 6 6 6 6 7 7 7 8 8 7 6 8 9 9 10 9 9 9 7 7 9 11 11 10 11 11 14 15 15 8 2 1 4 10 17 18 20 21 23 23 23 23 22 21 22 23 23 23 21 22 22 21 22 21 22
3 3 3 3 1 3 5 5 5 5 5 5 7 8 8 9 7 7 6 7 6 7 7 7 6 7 8 9 11 11 12 13 11 10 9 7 8 7 5 7 10 11 10 9 10 12 12 10 9 9 8 9 9 4 5 6 13 16 17 21 22 21 21 23 21 22 22 23 24 23 23 23 22 22
4 3 3 4 7 6 6 5 6 7 7 7 5 5 6 8 7 7 7 7 8 8 8 9 8 8 8 10 11 10 9 8 8 10 10 10 9 8 6 4 8 11 11 9 11 12 12 9 10 11 8 10 9 5 4 3 2 8 15 16 16 20 27 24 24 24 24 25 25 25 24 23 22 21
4 4 3 3 4 5 5 3 6 6 7 8 10 11 10 8 7 7 8 7 7 7 7 7 7 6 7 8 10 9 9 8 8 8 8 8 8 9 9 9 7 10 11 8 9 12 11 10 10 11 12 11 10 9 6 7 9 5 7 9 12 15 14 20 26 23 22 24 25 25 24 24 22 21
3 4 4 3 3 3 3 2 3 4 5 7 9 9 10 11 12 10 7 7 7 8 7 8 8 7 7 7 8 8 8 8 7 8 7 9 9 9 9 8 7 8 9 8 10 11 11 10 11 13 12 12 10 11 12 8 8 10 9 9 9 8 9 7 4 13 23 20 21 21 21 18 17 18
3 3 4 4 4 3 6 4 3 2 2 5 6 7 8 9 11 11 13 12 8 5 6 7 8 9 8 7 6 8 8 6 6 6 7 7 7 7 8 8 9 9 8 6 9 12 11 10 11 13 13 12 12 13 15 14 11 10 10 15 13 13 12 9 12 11 3 17 16 18 18 18 17 15
3 4 3 4 4 4 4 4 4 2 2 3 4 5 5 5 7 9 12 12 12 9 6 7 8 8 8 7 7 8 7 7 6 6 6 6 7 8 8 7 8 9 9 7 3 11 11 10 10 13 11 11 13 14 20 19 16 13 12 12 15 17 17 19 19 21 17 15 25 23 24 24 22 21
3 3 3 2 3 3 4 4 4 3 3 3 5 6 6 6 5 5 6 7 6 6 6 6 6 6 7 7 7 6 6 5 5 4 4 4 4 3 1 7 9 10 10 10 6 11 8 9 12 11 10 10 14 13 21 25 22 21 19 17 18 19 23 24 25 24 22 20 25 28 26 26 26 22
4 3 3 3 4 3 4 7 8 5 4 6 6 7 6 6 6 6 3 6 7 7 6 6 6 5 6 8 9 10 9 7 6 5 4 5 5 5 9 10 8 9 9 10 8 8 9 8 10 9 8 11 14 13 14 25 27 25 25 25 23 22 24 26 27 27 25 24 25 25 24 25 24 22
4 4 3 3 3 4 4 6 6 8 9 6 6 6 5 5 5 6 6 8 10 11 11 10 11 12 11 12 16 17 18 13 8 4 7 8 6 6 9 8 8 8 7 9 9 4 9 8 7 10 10 12 13 13 13 14 23 28 29 28 27 25 26 25 26 24 25 28 26 26 24 24 23 24
5 6 11 7 4 5 4 4 9 8 9 6 5 5 5 6 6 6 5 4 6 8 8 10 11 12 13 13 13 16 16 16 12 9 9 6 4 7 5 6 6 5 8 9 10 4 5 4 6 7 6 14 12 12 11 13 15 21 23 27 27 26 26 25 24 24 26 26 26 26 24 22 20 14
5 5 7 10 7 5 5 11 10 9 7 6 4 4 5 4 5 5 5 7 7 8 8 9 9 10 11 9 9 10 16 17 13 9 7 6 6 7 7 6 3 5 7 8 11 4 7 6 8 4 6 13 9 11 11 13 13 13 11 13 17 23 24 24 22 22 24 27 26 24 22 20 17 11
6 5 6 7 9 9 11 11 11 9 8 6 4 4 5 4 4 3 5 6 5 6 6 6 7 7 7 8 8 9 11 11 11 10 9 8 6 6 5 7 7 5 3 7 9 3 4 6 7 8 6 7 6 6 10 11 11 11 10 11 10 12 13 15 18 22 24 24 23 21 19 17 15 11
6 6 6 5 8 9 11 11 11 10 8 6 4 3 3 1 0 2 6 6 7 5 5 6 6 7 7 8 8 9 9 9 9 9 9 9 8 7 6 5 6 5 5 7 9 3 5 5 6 6 8 8 4 5 6 9 10 10 9 9 9 8 9 9 8 11 15 20 19 19 18 17 17 13
5 4 4 4 6 9 11 11 11 10 9 9 5 3 4 4 7 5 3 4 5 6 6 6 7 8 8 8 8 8 8 9 9 8 8 8 8 8 7 6 6 7 6 8 10 5 3 7 6 5 5 8 8 7 6 7 7 8 9 9 9 9 9 9 10 11 10 9 10 12 13 16 15 16
3 2 3 3 5 10 11 11 12 11 10 8 5 5 6 8 9 6 5 4 6 7 7 7 8 7 7 7 8 7 7 7 7 8 8 8 8 8 8 8 7 6 5 6 8 7 6 6 5 6 7 7 9 7 7 5 5 6 9 8 9 9 8 8 10 9 8 9 9 17 16 17 17 16
3 4 3 2 6 10 10 11 12 12 10 6 6 7 9 9 8 5 4 5 6 6 7 7 7 7 6 6 7 7 6 6 5 6 6 7 8 9 8 10 9 9 9 9 8 7 7 7 7 6 6 6 9 7 7 7 7 6 7 7 8 8 8 8 8 8 8 7 7 7 8 8 8 10
2 3 4 6 10 9 10 10 10 10 10 10 10 10 10 8 6 5 4 4 6 6 6 6 6 6 6 5 3 5 5 4 5 4 6 5 7 7 8 9 10 10 8 8 9 8 7 7 7 6 7 6 8 7 7 6 5 6 5 5 7 7 7 7 7 7 7 7 7 7 6 6 6 6
6 6 7 10 10 10 8 6 6 5 5 9 11 12 9 6 6 3 5 4 5 5 4 5 6 5 5 5 5 3 4 7 7 5 5 6 8 7 7 9 10 10 10 10 9 8 8 7 6 7 9 8 7 8 6 8 8 7 7 7 6 7 7 6 7 6 7 7 7 7 5 6 5 6
4 6 6 5 6 6 9 8 6 6 6 7 8 7 6 6 5 4 4 4 4 3 5 5 5 4 5 4 6 7 7 7 6 6 4 6 6 5 5 8 9 9 9 9 9 8 8 8 7 6 9 8 8 7 6 6 8 6 6 6 5 6 2 5 6 6 6 6 6 6 6 6 6 6
3 4 4 6 5 5 7 7 6 6 6 6 5 6 5 5 4 4 4 4 4 2 2 2 3 4 5 6 6 6 6 6 6 5 6 5 6 6 3 7 8 7 8 8 9 9 9 7 8 8 8 6 8 6 6 7 7 6 6 5 6 6 5 6 6 5 4 6 7 7 6 6 6 5
3 5 6 6 6 6 5 6 6 6 6 6 6 5 5 5 5 5 5 6 3 2 4 6 5 6 6 6 6 6 6 7 6 6 6 6 6 6 7 9 6 6 7 7 7 7 6 7 7 7 7 7 6 5 5 8 6 5 6 5 6 6 5 5 5 5 4 7 6 6 6 5 5 4
6 5 4 4 3 4 5 5 5 5 5 6 6 6 4 4 5 4 5 4 2 2 5 3 5 4 5 6 5 6 6 6 6 6 6 6 5 6 7 8 6 5 5 5 5 5 5 5 5 7 7 7 8 7 6 7 6 5 5 5 6 5 3 4 5 4 5 5 6 6 5 4 3 3
4 4 4 2 3 3 3 3 2 2 4 3 4 4 4 4 5 3 4 3 2 2 4 5 3 3 4 3 3 6 4 5 5 6 6 5 6 6 6 7 6 5 5 5 5 5 5 5 5 6 7 6 7 6 5 5 5 5 5 5 4 5 3 2 3 4 4 3 4 4 3 2 1 1
3 3 5 2 1 1 4 1 0 1 3 2 2 2 5 5 5 4 3 2 1 1 4 4 3 3 4 3 3 3 3 4 5 5 5 5 6 6 5 6 4 4 4 4 3 4 4 5 5 6 7 4 4 4 3 4 4 3 5 2 2 3 2 2 2 3 5 3 2 4 3 2 2 3
3 2 5 5 3 2 3 1 1 1 1 2 3 3 2 2 3 3 2 1 3 2 3 4 3 2 3 3 3 3 2 3 3 3 4 3 3 4 5 3 4 3 4 3 2 3 3 4 4 5 7 5 6 4 1 4 4 1 5 5 1 1 4 3 3 2 1 1 2 1 2 2 1 4
5 3 4 3 3 3 2 2 1 1 1 0 1 2 2 1 1 2 2 3 4 3 3 4 2 1 1 2 5 4 3 2 2 2 1 1 2 2 2 2 2 1 1 1 3 3 3 4 3 2 4 6 5 3 1 1 1 1 1 4 3 1 1 4 1 1 0 0 1 2 2 1 0 2
6 6 5 5 4 4 4 4 2 2 1 0 1 2 1 1 2 2 3 3 2 3 3 5 3 2 1 1 2 5 5 3 2 1 1 1 1 1 0 1 0 1 0 1 2 2 1 1 1 1 4 6 5 5 4 3 2 3 2 2 4 3 1 3 3 1 2 1 0 1 1 2 2 3
4 4 6 6 5 4 4 3 3 3 2 1 0 0 1 2 1 1 2 2 2 2 3 2 1 2 2 2 3 3 3 2 4 4 3 3 2 2 2 1 1 0 0 1 2 3 3 3 4 5 5 4 2 3 5 2 0 1 2 3 7 7 5 4 4 4 1 2 3 3 1 2 1 3
3 4 4 4 4 4 4 5 4 3 4 2 1 1 0 1 2 1 1 0 1 2 2 2 2 2 1 1 1 2 5 2 1 0 0 1 3 4 3 3 1 0 1 3 3 4 7 4 3 5 4 1 1 1 2 0 0 1 3 6 4 7 7 7 5 5 3 2 4 3 2 1 1 2
6 6 4 4 5 6 5 6 4 4 4 3 2 2 1 1 1 2 1 1 1 1 2 1 1 1 1 1 1 3 4 5 3 1 1 2 3 1 3 3 4 2 2 6 6 8 5 2 1 3 3 3 1 1 2 5 3 3 3 4 5 4 6 8 7 6 4 6 5 2 1 0 0 2
4 5 6 6 4 4 4 4 4 4 4 3 3 3 2 2 0 1 1 1 0 2 2 1 0 0 0 0 0 1 2 1 2 3 4 3 4 5 4 5 6 5 6 7 5 4 4 3 1 3 3 3 3 3 5 6 6 3 2 3 4 2 2 4 6 8 8 10 8 6 6 5 4 2
6 5 5 5 6 6 4 5 5 5 4 4 3 3 3 4 3 3 2 2 2 1 2 1 1 0 0 0 1 1 1 2 3 1 1 1 2 3 4 4 3 3 3 4 4 2 2 1 0 2 5 6 4 4 8 4 4 6 5 3 3 3 4 2 2 3 4 7 12 13 11 10 10 10
5 5 5 5 6 5 6 5 4 4 4 3 3 4 4 3 4 3 3 3 3 2 1 2 1 1 1 1 1 1 2 3 3 2 1 1 1 1 2 3 4 3 2 2 2 1 1 0 1 0 2 2 2 6 6 4 6 3 3 3 6 6 4 1 2 6 6 7 10 13 14 14 14 15
Wind_Direction
43 37 29 26 3 358 343 337 330 321 318 315 310 320 331 332 310 315 305 305 323 324 6 336 300 8 348 340 335 330 324 313 307 292 276 268 263 258 249 243 243 244 244 229 214 225 231 225 223 227 216 203 204 202 199 194 191 191 193 198 204 203 208 187 188 191 188 185 178 171 168 166 163 163
42 36 30 18 11 351 350 342 332 336 345 346 348 351 343 335 331 317 308 308 315 311 336 309 315 349 343 340 331 333 330 330 328 307 290 280 275 265 258 249 242 241 240 236 224 219 222 225 220 221 220 207 202 199 198 195 193 195 199 200 203 199 193 186 185 189 186 188 175 170 168 167 166 164
43 35 26 13 7 354 348 348 353 3 10 7 360 356 347 350 346 331 316 305 330 21 323 314 351 341 336 337 326 334 337 334 336 326 305 294 284 278 269 258 246 240 239 237 232 229 225 224 219 217 223 213 205 200 198 195 197 197 198 199 202 194 183 184 185 190 188 186 177 171 170 170 169 167
46 35 25 8 3 353 351 8 20 19 8 360 351 343 339 343 337 332 317 298 301 328 308 329 338 347 336 331 332 338 333 330 334 333 320 304 301 294 280 268 257 249 242 238 236 236 235 227 221 213 211 217 211 204 201 199 198 197 198 197 197 188 177 179 185 186 188 185 175 174 175 173 171 170
45 34 21 7 360 353 5 7 17 17 353 351 340 347 332 331 346 343 335 325 315 315 345 336 340 332 340 333 344 335 334 331 331 328 321 317 309 304 296 287 266 251 245 239 232 234 237 234 225 223 212 214 216 202 199 199 197 196 196 196 191 182 178 182 181 185 187 178 177 175 176 173 171 171
43 29 17 8 360 357 7 7 20 12 5 5 2 360 353 349 348 352 352 333 321 320 333 342 339 331 344 327 338 338 331 330 328 325 324 328 335 331 325 309 292 262 246 241 239 232 232 230 222 220 213 213 210 200 196 195 194 194 194 194 184 181 182 180 186 183 185 177 175 175 173 172 170 169
39 27 15 6 360 356 12 20 22 19 24 15 20 15 8 5 2 1 2 349 340 336 330 332 330 336 334 330 327 329 327 317 318 314 324 348 360 350 339 331 327 302 255 238 237 230 227 226 224 221 209 208 212 205 195 194 191 191 192 189 181 181 183 182 186 183 184 176 173 172 170 171 170 169
37 25 16 4 2 358 16 17 18 18 17 18 13 14 4 6 4 359 351 358 349 328 327 336 339 334 329 329 328 327 326 330 331 327 321 16 2 355 357 354 351 355 350 273 234 227 225 226 224 219 209 206 209 202 193 194 192 189 188 185 183 181 181 187 187 182 175 176 175 173 170 170 170 170
39 30 23 6 4 7 18 15 18 8 13 5 4 3 355 353 348 346 349 344 345 335 335 332 334 328 326 322 325 340 340 340 341 345 359 19 5 4 2 1 4 359 11 17 7 335 283 247 226 217 212 208 206 203 195 190 190 189 188 185 184 182 182 186 185 183 172 174 174 175 173 171 171 171
46 39 25 16 14 19 30 21 13 12 11 5 8 4 357 355 347 348 353 355 350 355 344 336 330 344 347 342 349 348 345 344 348 351 360 17 19 12 9 12 4 3 9 4 358 353 339 279 261 241 217 211 207 200 197 191 190 188 187 186 186 184 183 183 182 179 177 174 174 175 174 172 171 172
51 34 20 20 19 30 31 31 22 12 15 13 12 5 352 350 350 357 11 6 1 355 345 336 329 316 345 349 341 346 352 347 357 357 343 13 17 26 21 13 6 7 6 4 4 6 357 338 255 233 236 226 210 197 196 191 192 187 187 186 186 186 186 187 183 182 181 176 175 174 172 173 173 171
45 23 4 357 352 28 40 34 21 18 16 10 19 8 1 357 357 4 2 354 355 354 357 351 342 348 339 348 346 338 354 359 9 11 344 357 356 7 21 23 14 4 5 6 1 7 6 3 350 336 208 318 262 211 195 194 192 194 188 186 187 189 187 184 184 187 182 176 173 171 171 173 174 171
17 4 1 337 331 359 7 4 359 360 9 17 18 9 8 8 2 1 4 6 359 4 359 353 349 341 355 359 354 3 12 14 354 341 355 0 356 344 354 23 26 14 4 3 12 15 7 356 11 9 11 1 346 179 176 197 204 194 197 197 190 189 191 186 185 185 181 177 175 174 172 173 174 172
6 357 1 353 15 18 4 1 351 344 344 1 17 6 11 9 9 5 3 9 9 7 6 6 349 354 359 356 359 3 9 2 357 7 8 12 355 358 4 17 27 11 8 7 18 18 5 1 16 20 9 359 353 340 96 92 161 210 198 201 208 200 185 183 179 183 183 181 177 174 174 175 171 169
350 351 353 360 7 11 353 347 338 336 349 352 3 11 22 30 25 12 9 13 7 5 8 357 1 360 348 351 351 2 1 7 10 12 5 12 10 19 18 8 333 10 2 7 24 22 4 6 21 20 19 2 354 350 12 104 114 160 201 208 203 196 207 191 178 181 184 182 178 174 172 170 168 166
1 354 357 5 15 353 15 17 355 341 15 23 20 26 28 30 29 33 33 7 6 7 5 9 7 358 353 334 350 348 358 3 9 15 18 23 24 25 28 18 13 338 351 12 30 28 9 6 24 34 18 11 5 7 15 48 96 120 129 135 119 110 118 79 354 200 182 179 169 163 157 156 158 153
11 4 10 12 22 3 19 17 360 355 11 28 20 23 19 25 30 25 25 24 21 360 14 15 9 8 341 345 349 343 340 336 18 11 26 24 30 34 36 24 18 2 350 360 32 35 9 8 19 38 19 16 19 16 19 38 68 85 116 128 120 115 101 98 106 55 259 157 133 116 105 102 99 102
21 14 17 15 19 5 14 13 7 26 53 36 22 9 12 9 10 22 29 24 18 18 21 18 19 356 1 357 336 335 333 358 9 8 21 13 33 38 41 28 33 22 9 17 346 45 15 4 27 36 18 21 30 28 29 39 51 68 87 100 112 108 103 101 94 97 91 107 108 102 101 98 93 92
25 13 4 7 35 17 11 9 354 54 58 46 31 29 18 8 3 20 22 20 18 19 19 18 13 4 7 359 352 346 355 353 337 354 14 17 28 26 48 53 36 37 21 13 23 60 11 360 44 34 21 25 41 37 35 41 52 60 66 75 89 96 103 100 98 97 103 104 100 105 102 100 99 96
20 23 18 18 44 34 34 11 28 70 80 62 50 41 27 18 16 18 21 29 26 27 24 16 9 4 2 19 27 26 20 6 354 1 26 31 21 47 52 46 24 35 14 20 33 61 41 5 50 42 28 36 47 38 45 39 49 59 65 70 71 81 89 95 99 103 101 94 92 90 94 100 101 101
27 28 36 41 58 58 44 12 54 76 84 65 59 55 40 25 24 11 357 10 15 13 14 13 17 18 15 24 30 30 30 27 3 348 37 18 349 40 59 43 36 31 13 14 10 30 52 10 29 57 36 46 42 39 37 42 44 52 59 63 67 70 74 80 89 91 95 97 94 93 90 87 88 89
36 35 44 49 55 60 40 42 63 67 83 78 76 68 52 30 18 3 353 10 10 6 9 16 17 19 18 22 30 34 33 31 28 34 36 348 345 45 46 64 50 36 29 16 354 26 28 330 2 45 42 51 34 31 35 38 41 45 51 55 62 66 70 72 72 82 85 84 85 85 86 86 84 79
41 29 33 35 37 61 60 54 54 59 81 92 93 96 75 49 26 344 360 21 12 11 17 15 12 18 16 19 27 30 32 35 33 31 26 359 35 45 31 13 344 25 8 354 347 39 2 6 13 351 43 66 31 28 28 31 31 36 38 48 51 53 61 65 68 72 79 82 80 80 81 84 87 86
30 31 28 25 23 49 57 58 62 69 89 108 119 102 91 83 38 333 26 24 26 20 21 11 14 17 10 18 26 30 31 31 32 29 29 25 24 48 48 49 57 69 333 326 339 48 33 22 32 16 16 89 60 6 24 31 31 29 30 38 40 36 48 56 63 60 65 74 79 80 81 81 85 83
54 34 26 20 16 44 60 62 63 69 78 99 103 100 124 104 180 37 43 13 23 31 20 19 17 19 20 25 28 31 30 30 24 27 31 35 33 36 41 49 53 65 16 338 353 47 65 11 49 35 48 62 71 65 26 43 30 29 29 36 42 26 49 49 54 51 56 60 65 74 81 83 87 96
54 40 36 36 19 48 59 61 61 59 61 65 82 60 79 117 86 65 42 28 30 30 23 21 26 21 22 24 26 27 31 29 25 26 30 33 38 40 44 50 55 60 10 356 13 16 63 47 16 54 60 78 70 63 67 45 29 29 35 36 38 34 39 48 52 51 48 51 53 60 67 75 85 98
91 42 50 48 53 64 61 62 60 55 53 60 66 102 121 99 89 74 44 31 33 32 25 27 29 21 18 23 19 21 23 19 24 31 34 33 37 45 47 46 49 60 40 28 27 22 53 73 28 61 78 85 90 74 55 51 42 25 45 37 39 40 41 53 62 63 62 70 73 75 71 72 73 70
102 84 65 65 65 65 62 63 64 59 56 61 72 91 86 86 77 71 59 40 35 33 29 32 28 23 13 19 23 14 3 11 14 27 35 39 40 46 47 45 45 44 44 40 35 38 51 77 66 42 62 81 88 78 90 58 61 46 56 45 46 42 40 51 61 66 65 69 74 72 82 80 78 80
90 85 77 68 61 57 53 53 58 56 48 46 57 58 63 69 72 72 73 56 45 40 29 28 24 18 11 13 3 354 2 11 22 26 27 31 41 38 50 54 50 44 41 37 38 39 45 64 71 67 66 50 82 75 74 74 63 44 35 47 49 32 41 45 59 68 67 63 65 68 71 86 84 86
84 73 62 56 54 51 42 47 46 49 38 42 50 51 53 55 58 67 81 62 60 39 22 27 23 9 2 2 349 357 8 38 26 9 14 33 39 31 33 56 47 42 39 36 38 37 44 50 53 72 77 63 64 79 74 88 72 66 57 68 90 72 36 44 52 56 68 70 70 72 59 61 70 84
73 57 52 54 58 70 58 59 58 54 33 40 37 37 38 47 51 55 68 89 93 48 38 37 29 14 5 6 26 24 30 33 18 2 12 45 32 30 28 63 58 48 36 36 38 38 44 45 45 45 80 79 68 63 65 70 79 63 40 34 35 87 56 52 55 62 67 73 72 65 60 59 57 51
64 67 48 43 29 39 40 33 31 28 35 41 41 37 33 34 30 47 74 75 65 49 59 41 24 24 20 32 16 22 34 32 17 6 31 40 36 12 357 66 55 53 49 37 38 36 45 47 55 50 58 67 83 66 61 63 76 77 73 55 68 60 62 76 70 52 52 80 68 60 51 58 62 48
50 47 43 34 33 37 47 38 33 21 29 29 31 38 32 33 40 38 44 75 53 13 56 51 45 33 28 25 19 26 39 25 20 2 40 32 48 34 51 70 58 56 64 49 45 37 41 49 49 63 66 61 65 74 80 85 55 62 84 77 70 65 49 52 74 73 63 66 66 69 64 47 52 57
82 58 68 36 48 43 57 52 42 28 32 34 30 21 22 34 47 45 48 51 35 41 72 59 61 37 43 35 24 37 39 23 25 20 40 36 28 59 58 68 57 45 61 65 47 39 37 42 50 54 62 65 64 64 66 83 93 68 76 82 78 82 48 60 50 50 65 93 97 74 58 35 7 18
86 102 87 55 50 50 62 72 52 34 50 26 39 23 22 32 33 33 62 25 9 66 89 65 61 59 70 57 32 52 38 46 27 27 24 49 47 60 64 72 62 45 55 53 42 15 27 28 38 64 52 44 53 32 71 105 94 85 72 57 78 91 72 40 74 55 69 53 67 82 57 20 3 310
83 121 129 128 134 107 90 47 349 38 72 34 33 12 40 18 9 26 23 357 43 122 94 92 68 70 79 86 62 51 41 58 42 33 35 38 61 65 57 64 68 50 50 56 34 7 36 34 42 77 79 47 56 47 340 359 84 143 103 89 21 78 71 82 63 72 77 66 67 109 120 168 227 268
136 150 144 157 187 182 152 193 196 100 63 75 53 53 76 32 346 344 326 5 75 76 95 107 94 96 108 102 84 59 40 57 65 40 49 31 54 66 78 44 45 53 56 6 9 18 53 52 35 85 95 74 77 88 321 300 342 127 122 119 69 89 129 114 108 71 36 135 158 138 165 166 216 248
153 164 154 173 189 207 214 206 219 128 71 22 92 58 33 349 329 351 351 51 44 48 61 87 90 69 99 127 118 97 69 54 78 74 48 30 53 54 63 101 92 33 13 339 13 26 59 82 64 55 96 115 113 118 121 308 353 316 137 130 138 195 104 102 87 166 250 29 174 202 114 85 264 262
148 163 172 179 199 190 189 211 199 197 202 273 92 94 85 25 9 23 44 51 43 58 57 60 57 61 73 79 125 140 135 125 124 181 201 218 141 149 112 114 81 328 27 317 334 350 31 85 136 142 139 135 154 201 182 153 246 257 288 216 141 126 201 158 181 189 161 146 48 27 250 258 277 329
179 171 175 173 191 198 219 204 216 228 211 219 212 198 136 113 96 64 62 59 70 64 82 71 51 60 55 72 93 81 79 130 176 193 201 206 206 199 199 192 177 227 16 299 303 306 326 263 209 194 198 198 222 211 173 173 226 278 306 283 191 178 182 160 180 171 253 200 143 121 176 5 217 316
166 181 213 198 184 188 201 207 213 200 219 220 239 264 194 167 121 128 177 191 147 97 72 41 43 71 64 44 72 132 116 97 62 183 202 210 210 208 214 161 202 205 201 263 273 295 261 252 233 173 140 173 280 106 73 43 244 273 284 274 253 224 192 182 176 170 200 176 146 138 171 219 273 347
182 193 195 190 190 207 198 208 211 212 229 204 201 198 189 136 137 116 83 94 113 107 105 69 28 76 25 37 127 118 124 144 149 211 214 168 160 199 197 180 212 227 185 230 235 237 251 344 197 124 104 95 96 155 216 212 237 270 259 276 293 273 219 209 203 196 166 151 127 109 91 360 48 332
197 188 188 204 211 210 207 210 214 207 223 196 194 183 159 136 63 98 125 108 93 115 125 144 203 84 323 41 119 142 127 164 181 167 170 181 169 156 182 209 213 211 211 238 243 263 294 323 139 135 128 151 194 172 221 226 221 251 287 288 272 311 297 236 216 221 213 208 203 193 175 172 130 226
196 194 202 192 195 206 217 215 217 217 215 209 196 168 176 167 191 223 208 196 176 196 193 179 206 186 260 29 109 107 163 192 177 168 228 220 175 172 173 196 209 226 248 269 278 299 343 13 49 154 156 209 191 181 240 239 251 235 241 277 298 305 261 294 316 317 267 245 238 238 235 207 208 210
200 198 190 197 204 208 210 211 210 209 208 206 182 199 210 206 210 207 223 215 226 243 238 227 221 257 238 190 164 218 236 198 179 221 226 209 201 184 163 168 168 176 185 201 179 249 349 15 348 71 217 249 193 214 240 211 236 231 239 248 266 258 252 234 223 252 254 278 247 228 231 234 240 250